Regional Weather Roundup
Issued by NWS Boston, MA

Home | Current Version | Previous Version | Text Only | Print | Product List | Glossary On
Versions: 1 2 3 4 5 6 7 8 9 10 11 12 13 14 15 16 17 18 19 20 21 22 23 24 25 26 27
000
ASUS41 KBOX 260510
RWRBOX

REGIONAL WEATHER ROUNDUP
NATIONAL WEATHER SERVICE TAUNTON MA
100 AM EDT THU MAY 26 2016

NOTE:  "FAIR" INDICATES FEW OR NO CLOUDS BELOW 12,000 FEET WITH NO
SIGNIFICANT WEATHER AND/OR OBSTRUCTIONS TO VISIBILITY.  THE FOLLOWING
OBSERVATION LOCATIONS DO NOT REPORT PRESENT WEATHER...PROVINCETOWN...
SMITHFIELD...BLOCK ISLAND...KEENE...AND OXFORD.

MAZALL-260600-
EASTERN MASSACHUSETTS

CITY           SKY/WX    TMP DP  RH WIND       PRES   REMARKS
BOSTON         PTCLDY    74  52  46 W9        30.00R
BEVERLY        CLEAR     67  53  61 N5        29.99R
LAWRENCE       CLEAR     69  53  56 NW3       30.02R
BEDFORD        CLEAR     65  53  65 W6        30.00R
BLUE HILL        N/A     69  52  54 W14       30.01S
NORWOOD        CLEAR     63  54  72 CALM      30.00S
MARSHFIELD     CLEAR     68  55  64 W5        29.98S
PLYMOUTH       CLEAR     61  55  81 SW7       30.00S
TAUNTON        CLEAR     64  53  67 W3        29.99F
NEW BEDFORD    CLEAR     69  50  50 W7        30.00F
$$

MAZALL-260600-
CAPE COD AND THE ISLANDS

CITY           SKY/WX    TMP DP  RH WIND       PRES   REMARKS
FALMOUTH       CLEAR     59  54  82 W5        30.01F
HYANNIS        CLEAR     66  51  58 W7        29.98F
CHATHAM        CLEAR     60  57  89 SW5       30.01S
PROVINCETOWN   CLEAR     61  54  77 W8        29.98F
NANTUCKET      CLEAR     60  52  74 W12       30.01F
MARTHAS VNYRD  CLEAR     71  47  42 W8        30.01F
$$

MAZALL-260600-
CENTRAL AND WESTERN MASSACHUSETTS

CITY           SKY/WX    TMP DP  RH WIND       PRES   REMARKS
WORCESTER      CLEAR     66  51  58 W8        30.05F
FITCHBURG      CLEAR     68  53  58 N7        30.03S
ORANGE         CLEAR     59  57  93 CALM      30.04S
SPRINGFIELD    CLEAR     64  56  75 E2        30.02S
WESTFIELD      CLEAR     62  55  77 CALM      30.03F
NORTH ADAMS    CLEAR     59  54  83 CALM      30.06S
PITTSFIELD     CLEAR     62  54  74 SW6       30.07S
$$

RIZALL-260600-
RHODE ISLAND

CITY           SKY/WX    TMP DP  RH WIND       PRES   REMARKS
PROVIDENCE     CLEAR     70  49  47 W8        30.02S
NEWPORT        PTCLDY    69  49  48 CALM      30.02F
BLOCK ISLAND   CLEAR     63  50  62 W9        30.04F
SMITHFIELD     CLEAR    N/A N/A N/A W7        30.02S
WESTERLY       CLEAR     63  50  62 CALM      30.05R
$$

CTZALL-260600-
CONNECTICUT

CITY           SKY/WX    TMP DP  RH WIND       PRES   REMARKS
BRADLEY INTL   PTCLDY    65  54  67 S5        30.02F
HARTFORD       PTCLDY    68  54  60 CALM      30.03F
BRIDGEPORT     CLEAR     64  55  72 SW5       30.04S
DANBURY        CLEAR     60  54  80 CALM      30.07S
GROTON         CLEAR     59  55  87 NE3       30.03S
NEW HAVEN      CLEAR     66  52  60 CALM      30.04S
CHESTER        MOCLDY    70  52  52 CALM      30.05S
MERIDEN        MOCLDY    63  56  78 CALM      30.05R
WILLIMANTIC    CLEAR     65  55  70 CALM      30.04F
OXFORD           N/A     64  52  63 N8        30.07R
$$

MEZ002-015-021-024-NHZ003-005-008-011-012-014-VTZ005-008-260600-
NORTHERN NEW ENGLAND

CITY           SKY/WX    TMP DP  RH WIND       PRES   REMARKS
PORTLAND ME    CLEAR     58  56  93 N3        29.97S
BANGOR ME      CLEAR     55  51  86 SW3       29.94S
CONCORD NH     CLEAR     59  55  87 CALM      30.01S
MANCHESTER NH  CLEAR     67  54  63 CALM      30.00R
NASHUA NH      CLEAR     63  56  78 W5        30.02R
PORTSMOUTH NH  PTCLDY    61  55  79 S7        29.99R
JAFFREY NH     CLEAR     57  54  89 CALM      30.06S
KEENE NH         N/A    N/A N/A N/A MISG        N/A
BURLINGTON VT  FAIR      66  53  63 N6        30.06R
MT. WASHINGTON FOG       45  45 100 W59G66      N/A  VSB 0   WCI  31
$$

NYZ052-076-260600-
EASTERN NEW YORK

CITY           SKY/WX    TMP DP  RH WIND       PRES   REMARKS
ALBANY         PTCLDY    63  53  70 CALM      30.05R
NEW YORK CITY  PTCLDY    80  53  39 W8        30.05R
$$

ANZALL-260600-
MARINE OBSERVATIONS

STATION/POSITION TIME  TEMP    WIND        PRES    VSBY  WAVE
                       AIR SEA DIR/SP/G                  HT/PER
                 (UTC) (F)     (DEG/KT/KT) (MB)    (MI)  (FT/S)
BOSTON BUOY      0450   62 56  260/ 10/ 10 1015.1R         2/ 8
BUZZARDS BAY     0400   65     250/ 18/ 19 1016.9R
NANTUCKET SOUND  0450   60 56  250/ 12/ 14 1015.7F         1/ 3
MASS BAY-STELLWA 0404   60 54                N/A    1 7/8  2/ 8
ISLE OF SHOALS   0400   63      10/  5/  6 1015.3R
S OF BLOCK IS    NOT AVBL
$$

......................KEY.........................
  SKY/WX - SKY CONDITION/PRESENT WEATHER
  TMP    - TEMPERATURE IN FAHRENHEIT
  DWPT   - DEWPOINT IN FAHRENHEIT
  RH     - RELATIVE HUMIDITY IN PERCENT
  WIND   - DIRECTION AND SPEED IN MPH
  PRES   - MEAN SEA LEVEL PRESSURE IN INCHES OF HG
  WCI    - WIND CHILL INDEX
  VSB    - VISIBILITY IN MILES
  HX     - HEAT INDEX
  TC     - TEMPERATURE IN CELSIUS
  VRB    - VARIABLE WIND DIRECTION
  N/A    - NOT AVAILABLE




USA.gov is the U.S. government's official web portal to all federal, state and local government web resources and services.